Weather reports worldwide

Advertisment
Lindenberg, Germany (10393): temperature & dewpoint: 18.03.2019 17:00:00 - 24.03.2019 17:00:00 (CET)Lindenberg, Germany (10393): temperature 5cm & temperature -5cm: 18.03.2019 17:00:00 - 24.03.2019 17:00:00 (CET)Lindenberg, Germany (10393): temperature -20cm & temperature -100cm: 18.03.2019 17:00:00 - 24.03.2019 17:00:00 (CET)Lindenberg, Germany (10393): wind speed & gusts: 18.03.2019 17:00:00 - 24.03.2019 17:00:00 (CET)Lindenberg, Germany (10393): wind direction: 18.03.2019 17:00:00 - 24.03.2019 17:00:00 (CET)Lindenberg, Germany (10393): reduced air pressure: 18.03.2019 17:00:00 - 24.03.2019 17:00:00 (CET)Lindenberg, Germany (10393): visibility: 18.03.2019 17:00:00 - 24.03.2019 17:00:00 (CET)Lindenberg, Germany (10393): sunshine duration: 18.03.2019 17:00:00 - 24.03.2019 17:00:00 (CET)Lindenberg, Germany (10393): precipitation: 18.03.2019 17:00:00 - 24.03.2019 17:00:00 (CET)
Date & Time tt [°C] td [°C] tt 5cm [°C] tt -5cm [°C] tt -20cm [°C] tt -100cm [°C] ff [km/h] ff [kn] fx [km/h] fx [kn] dd ppp [hPa] vv [km] sd [min] rr [mm]
24.03.2019 17:00:00 10,5 0,0 10,7 13,4 11,8 6,8 10 5 21 11 NW 1021,5 45 3 0,0
24.03.2019 16:00:00 10,8 0,0 12,4 15,6 11,6 6,8 10 5 21 11 NW 1022,0 40 37 0,0
24.03.2019 15:00:00 11,2 0,4 13,8 17,3 11,0 6,7 12 6 23 12 WNW 1022,6 30 55 0,0
24.03.2019 14:00:00 11,3 0,5 15,1 17,7 10,3 6,7 10 6 22 12 NW 1023,6 40 60 0,0
24.03.2019 13:00:00 10,5 -1,3 15,8 16,8 9,4 6,7 8 5 24 13 W 1024,7 40 52 0,0
24.03.2019 12:00:00 10,5 -0,3 16,1 15,3 8,7 6,7 8 5 16 9 WNW 1025,5 35 41 0,0
24.03.2019 11:00:00 8,3 2,0 9,6 12,8 8,0 6,7 5 3 12 7 NW 1026,2 35 33 0,0
24.03.2019 10:00:00 8,2 2,4 11,9 11,5 7,5 6,6 4 2 16 9 NW 1027,1 30 59 0,0
24.03.2019 09:00:00 7,1 1,9 9,0 8,3 7,2 6,6 9 5 16 9 ENE 1027,5 30 57 0,0
24.03.2019 08:00:00 5,9 1,8 7,5 6,0 7,3 6,6 5 3 13 7 NNE 1027,8 20 46 0,0
24.03.2019 07:00:00 3,4 2,1 2,9 4,4 7,6 6,6 6 3 10 5 N 1028,2 12 1 0,0
24.03.2019 06:00:00 2,5 1,5 0,2 4,0 8,0 6,6 6 3 18 10 N 1028,2 15 0 0,0
24.03.2019 05:00:00 3,0 1,8 0,0 4,7 8,4 6,6 9 5 14 8 N 1028,4 15 0 0,0
24.03.2019 04:00:00 5,0 3,0 2,4 6,1 8,7 6,5 5 3 14 8 NNW 1028,7 15 0 0,0
24.03.2019 03:00:00 6,3 3,5 4,5 7,0 9,0 6,5 6 3 11 6 NNW 1028,7 15 0 0,0
24.03.2019 02:00:00 6,7 4,2 5,9 7,5 9,2 6,5 5 3 15 8 N 1029,0 15 0 0,0
24.03.2019 01:00:00 6,6 3,6 5,7 7,4 9,5 6,5 8 4 16 8 N 1029,0 15 0 0,0
24.03.2019 00:00:00 8,5 3,9 7,1 8,4 9,8 6,5 8 4 28 15 N 1028,8 15 0 0,0
23.03.2019 23:00:00 9,6 3,8 9,2 9,1 10,0 6,5 14 8 30 16 N 1028,8 12 0 0,0
23.03.2019 22:00:00 9,8 5,8 9,4 9,5 10,3 6,5 9 5 18 10 NNW 1028,4 12 0 0,0
23.03.2019 21:00:00 9,1 6,2 8,6 9,5 10,7 6,5 6 3 14 8 NNW 1028,4 12 0 0,0
23.03.2019 20:00:00 8,2 5,7 5,6 9,4 11,2 6,5 8 4 16 9 NNW 1028,1 12 0 0,0
23.03.2019 19:00:00 9,7 5,8 7,8 10,7 11,6 6,4 10 5 30 16 NNW 1027,4 8 0 0,0
23.03.2019 18:00:00 11,1 6,1 10,4 12,8 11,9 6,4 17 9 32 17 NNW 1026,9 10 1 0,0
23.03.2019 17:00:00 13,6 7,7 14,0 15,5 11,8 6,4 15 8 33 18 NNW 1026,2 8 60 0,0
23.03.2019 16:00:00 15,4 8,7 16,6 17,3 11,5 6,4 16 9 37 20 NNW 1025,7 10 48 0,0
23.03.2019 15:00:00 17,9 8,1 19,7 18,1 10,9 6,4 19 11 31 17 WNW 1024,9 15 60 0,0
23.03.2019 14:00:00 18,3 8,0 20,6 18,7 10,1 6,4 18 10 31 17 WNW 1024,9 20 60 0,0
23.03.2019 13:00:00 17,3 7,7 21,3 18,5 9,0 6,4 13 7 19 10 W 1025,1 15 60 0,0
23.03.2019 12:00:00 16,0 8,3 20,9 17,1 8,0 6,4 5 3 16 9 W 1025,3 10 60 0,0
23.03.2019 11:00:00 14,4 8,4 17,9 14,5 7,0 6,4 11 6 21 11 W 1025,6 10 60 0,0
23.03.2019 10:00:00 12,3 8,4 14,9 11,9 6,3 6,4 10 5 15 8 WSW 1025,7 10 60 0,0
23.03.2019 09:00:00 8,9 6,7 10,0 8,5 5,9 6,4 6 3 15 8 SSW 1025,7 8 60 0,0
23.03.2019 08:00:00 5,2 5,1 6,6 5,2 5,9 6,4 9 5 21 11 S 1026,0 4,0 60 0,0
23.03.2019 07:00:00 3,8 3,8 3,4 4,0 6,0 6,4 16 8 21 11 S 1026,2 0,6 9 0,0
23.03.2019 06:00:00 3,4 3,4 3,0 4,1 6,2 6,3 13 7 18 10 SSE 1026,4 0,1 0 0,0
23.03.2019 05:00:00 4,7 4,7 4,2 4,1 6,3 6,3 12 7 17 9 SE 1026,8 0,2 0 0,0
23.03.2019 04:00:00 5,0 5,0 4,2 4,2 6,5 6,3 12 6 16 9 SE 1026,9 0,2 0 0,0
23.03.2019 03:00:00 5,4 5,4 4,4 4,3 6,7 6,3 11 6 18 10 SE 1027,1 0,5 0 0,0
23.03.2019 02:00:00 5,9 5,8 4,8 4,6 7,0 6,3 11 6 19 11 SE 1027,5 1,5 0 0,0
23.03.2019 01:00:00 6,2 5,9 5,1 4,9 7,2 6,3 14 7 22 12 SE 1028,4 2,5 0 0,0
23.03.2019 00:00:00 6,1 6,0 4,6 5,1 7,5 6,3 13 7 19 11 SE 1029,0 2,5 0 0,0
22.03.2019 23:00:00 6,9 6,5 5,8 5,6 7,8 6,3 13 7 21 11 ESE 1029,7 3,0 0 0,0
22.03.2019 22:00:00 6,4 6,0 5,2 6,0 8,2 6,3 13 7 21 11 SE 1030,0 4,0 0 0,0
22.03.2019 21:00:00 6,8 6,1 5,0 6,7 8,5 6,3 14 7 22 12 ESE 1030,4 4,0 0 0,0
22.03.2019 20:00:00 8,1 6,8 6,8 7,6 8,8 6,3 11 6 20 11 ESE 1030,8 4,0 0 0,0
22.03.2019 19:00:00 8,5 7,0 7,1 8,7 9,0 6,3 11 6 19 10 E 1030,9 4,5 0 0,0
22.03.2019 18:00:00 10,1 7,5 9,5 10,8 9,0 6,3 11 6 18 10 ENE 1031,0 6 51 0,0
22.03.2019 17:00:00 11,5 7,7 12,5 12,6 8,7 6,3 6 3 11 6 ENE 1031,1 10 59 0,0
22.03.2019 16:00:00 10,7 7,5 12,4 13,1 8,3 6,2 5 3 11 6 SSE 1031,7 10 0 0,0
22.03.2019 15:00:00 10,5 7,1 12,1 12,9 7,9 6,2 4 2 11 6 SE 1032,3 10 0 0,0
22.03.2019 14:00:00 9,9 6,9 11,6 12,5 7,4 6,2 6 3 19 10 SSE 1032,9 8 0 0,0
22.03.2019 13:00:00 9,8 7,0 11,5 11,3 7,0 6,2 7 4 15 8 SSE 1033,3 7 0 0,0
22.03.2019 12:00:00 9,1 6,9 9,9 9,8 6,6 6,2 9 5 14 8 SE 1034,1 6 0 0,0
22.03.2019 11:00:00 8,7 7,0 9,2 9,0 6,3 6,2 4 2 10 6 SE 1034,3 6 0 0,0
22.03.2019 10:00:00 8,1 7,1 8,3 7,8 6,1 6,2 4 2 9 5 ESE 1034,5 5 0 0,0
22.03.2019 09:00:00 7,7 7,3 7,7 6,7 5,9 6,2 6 3 10 5 ESE 1034,5 4,0 0 0,0
22.03.2019 08:00:00 7,2 7,2 7,0 5,9 5,8 6,2 3 2 11 6 N 1034,3 4,0 0 0,0
22.03.2019 07:00:00 6,6 6,6 6,4 5,3 5,8 6,2 6 3 12 7 N 1033,9 4,0 0 0,0
22.03.2019 06:00:00 5,5 5,3 5,4 4,8 5,8 6,1 6 4 11 6 N 1033,6 0,8 0 0,0
22.03.2019 05:00:00 5,3 5,3 4,8 4,2 5,9 6,1 7 4 12 7 NW 1033,2 0,3 0 0,0
22.03.2019 04:00:00 4,5 4,5 1,9 3,5 6,1 6,1 9 5 12 7 WNW 1032,8 0,5 0 0,0
22.03.2019 03:00:00 5,6 5,6 3,4 3,7 6,4 6,1 8 4 11 6 W 1032,9 2,0 0 0,0
22.03.2019 02:00:00 6,1 6,0 2,2 3,8 6,7 6,1 8 4 9 5 W 1033,0 3,0 0 0,0
22.03.2019 01:00:00 5,9 5,7 2,7 4,3 6,9 6,1 6 3 13 7 NNW 1033,3 3,0 0 0,0
22.03.2019 00:00:00 6,5 6,2 2,3 4,7 7,2 6,1 8 4 13 7 WNW 1033,4 5 0 0,0
21.03.2019 23:00:00 6,9 6,2 3,0 5,2 7,5 6,1 9 5 12 6 WNW 1033,4 6 0 0,0
21.03.2019 22:00:00 7,6 6,7 3,8 6,0 7,8 6,1 9 5 10 5 W 1033,1 8 0 0,0
21.03.2019 21:00:00 7,3 6,5 3,9 6,2 8,2 6,1 6 3 7 4 W 1033,0 8 0 0,0
21.03.2019 20:00:00 7,7 6,3 4,4 7,1 8,5 6,0 5 3 8 4 NW 1033,0 8 0 0,0
21.03.2019 19:00:00 9,4 7,0 5,7 8,5 8,7 6,0 5 3 13 7 WNW 1032,7 8 0 0,0
21.03.2019 18:00:00 11,0 7,1 9,9 10,2 8,6 6,0 9 5 18 10 W 1032,4 10 57 0,0
21.03.2019 17:00:00 11,8 7,1 12,6 11,8 8,4 6,0 12 7 24 13 WNW 1032,7 12 60 0,0
21.03.2019 16:00:00 11,4 7,1 12,0 11,6 8,1 6,0 15 8 25 14 WNW 1032,9 12 17 0,0
21.03.2019 15:00:00 10,9 6,9 11,8 11,0 7,9 6,0 17 9 30 16 W 1033,3 12 0 0,0
21.03.2019 14:00:00 10,7 6,8 11,3 10,4 7,7 6,0 16 9 29 16 W 1034,0 15 0 0,0
21.03.2019 13:00:00 10,5 6,9 10,9 10,4 7,5 6,0 19 11 31 17 WSW 1034,4 20 0 0,0
21.03.2019 12:00:00 10,5 6,6 11,0 10,3 7,2 6,0 16 9 25 13 W 1034,8 20 0 0,0
21.03.2019 11:00:00 10,1 6,5 10,7 9,6 6,9 6,0 13 7 22 12 W 1034,8 10 0 0,0
21.03.2019 10:00:00 9,6 6,2 10,3 8,9 6,8 6,0 12 7 20 11 W 1034,8 10 0 0,0
21.03.2019 09:00:00 9,1 5,7 9,2 7,9 6,7 6,0 14 8 21 12 W 1034,6 12 0 0,0
21.03.2019 08:00:00 8,7 5,7 8,5 7,2 6,6 6,0 9 5 16 9 WSW 1034,2 15 0 0,0
21.03.2019 07:00:00 8,4 5,2 7,9 6,8 6,6 6,0 10 6 15 8 WSW 1033,8 18 0 0,0
21.03.2019 06:00:00 8,5 5,0 7,8 6,7 6,7 6,0 10 5 18 10 W 1033,6 15 0 0,0
21.03.2019 05:00:00 8,5 5,1 7,8 6,7 6,7 5,9 11 6 16 9 W 1033,5 15 0 0,0
21.03.2019 04:00:00 8,7 5,5 8,0 6,7 6,7 5,9 11 6 17 9 W 1033,3 15 0 0,0
21.03.2019 03:00:00 8,8 4,5 8,0 6,7 6,8 5,9 9 5 18 10 W 1033,6 20 0 0,0
21.03.2019 02:00:00 9,0 3,8 8,2 6,7 6,9 5,9 14 8 21 12 W 1033,7 20 0 0,0
21.03.2019 01:00:00 9,4 3,2 8,4 6,8 7,0 5,9 13 7 20 11 W 1033,6 20 0 0,0
21.03.2019 00:00:00 9,4 2,6 8,4 6,8 7,1 6,0 10 5 16 9 W 1033,8 20 0 0,0
20.03.2019 23:00:00 9,4 2,5 8,3 6,9 7,2 6,0 11 6 21 12 WSW 1033,6 25 0 0,0
20.03.2019 22:00:00 9,6 2,3 8,5 7,0 7,3 6,0 13 7 24 13 WSW 1033,1 25 0 0,0
20.03.2019 21:00:00 9,6 2,4 8,6 7,2 7,5 6,0 16 9 26 14 WSW 1032,8 25 0 0,0
20.03.2019 20:00:00 9,7 2,7 8,8 7,6 7,7 6,0 14 8 21 11 SW 1032,9 25 0 0,0
20.03.2019 19:00:00 10,0 2,7 9,0 8,2 7,9 6,0 12 7 21 11 SW 1032,7 30 0 0,0
20.03.2019 18:00:00 10,4 2,3 9,5 8,8 8,0 6,0 15 8 26 14 WSW 1032,5 25 37 0,0
20.03.2019 17:00:00 11,2 2,2 11,4 10,5 7,9 6,0 18 10 31 17 WSW 1032,0 25 39 0,0
20.03.2019 16:00:00 10,9 1,6 11,1 11,1 7,6 6,0 19 10 34 18 W 1032,6 40 22 0,0
20.03.2019 15:00:00 11,4 1,4 14,2 12,4 7,1 6,0 19 11 32 18 W 1032,4 40 32 0,0
20.03.2019 14:00:00 10,5 0,9 11,2 12,9 6,3 6,0 14 8 38 21 WSW 1033,0 35 47 0,0
20.03.2019 13:00:00 10,1 0,5 13,6 13,1 5,3 6,0 15 8 25 13 WSW 1033,3 35 60 0,0
20.03.2019 12:00:00 9,5 1,5 13,4 11,9 4,2 6,0 12 6 24 13 WSW 1033,6 30 60 0,0
20.03.2019 11:00:00 8,3 -0,5 11,8 8,9 3,3 6,0 13 7 24 13 W 1033,9 30 60 0,0
20.03.2019 10:00:00 6,3 -0,5 8,9 4,9 2,8 6,0 11 6 18 10 WSW 1033,9 27 60 0,0
20.03.2019 09:00:00 3,6 -1,0 4,8 0,2 2,8 6,0 6 3 11 6 SW 1033,7 25 60 0,0
20.03.2019 08:00:00 2,0 -1,4 3,0 0,1 2,9 6,0 6 4 15 8 W 1033,4 20 60 0,0
20.03.2019 07:00:00 -1,1 -2,2 -3,3 0,1 3,0 6,0 10 6 13 7 WSW 1032,7 18 19 0,0
20.03.2019 06:00:00 -1,1 -2,2 -4,1 0,2 3,2 6,0 12 6 14 8 W 1032,4 15 0 0,0
20.03.2019 05:00:00 -1,1 -2,2 -4,1 0,2 3,3 6,0 10 6 14 8 W 1032,1 20 0 0,0
20.03.2019 04:00:00 -0,6 -1,8 -4,4 0,2 3,5 6,0 10 5 13 7 WNW 1031,7 30 0 0,0
20.03.2019 03:00:00 -0,3 -1,9 -4,0 0,3 3,7 6,0 10 5 14 8 WNW 1031,5 30 0 0,0
20.03.2019 02:00:00 0,3 -1,6 -3,7 0,4 4,0 6,0 10 5 15 8 W 1031,3 30 0 0,0
20.03.2019 01:00:00 0,9 -1,3 -2,6 0,5 4,2 6,0 11 6 15 8 W 1031,3 30 0 0,0
20.03.2019 00:00:00 0,8 -1,3 -3,0 0,7 4,6 6,1 10 5 16 9 WNW 1030,9 30 0 0,0
19.03.2019 23:00:00 1,0 -1,5 -2,7 0,7 5,0 6,1 13 7 16 9 WNW 1030,6 30 0 0,0
19.03.2019 22:00:00 1,5 -1,5 -2,2 1,4 5,4 6,1 10 6 16 8 W 1030,0 30 0 0,0
19.03.2019 21:00:00 1,9 -1,4 -1,9 2,1 5,8 6,1 9 5 11 6 WSW 1029,4 30 0 0,0
19.03.2019 20:00:00 3,0 -1,2 -1,0 3,3 6,1 6,1 9 5 12 6 WSW 1028,8 40 0 0,0
19.03.2019 19:00:00 4,5 -0,9 2,1 4,4 6,4 6,1 8 5 13 7 W 1028,1 50 0 0,0
19.03.2019 18:00:00 6,1 -1,2 4,3 5,8 6,5 6,1 11 6 26 14 W 1027,1 50 53 0,0
19.03.2019 17:00:00 7,4 -1,0 8,3 7,6 6,5 6,1 14 8 36 20 WNW 1026,3 45 38 0,0
19.03.2019 16:00:00 7,6 -1,5 8,6 8,7 6,3 6,1 19 10 31 17 WNW 1026,0 50 24 0,0
19.03.2019 15:00:00 7,2 -0,8 8,0 8,1 6,0 6,1 16 9 29 16 WNW 1025,8 35 23 0,0
19.03.2019 14:00:00 7,2 -1,6 10,3 8,4 5,7 6,1 14 8 27 15 W 1025,5 40 5 0,0
19.03.2019 13:00:00 6,3 -0,3 7,8 8,3 5,3 6,1 12 6 27 15 W 1025,6 40 11 0,0
19.03.2019 12:00:00 5,3 0,6 6,3 7,2 4,9 6,1 12 6 28 15 WNW 1025,5 35 4 0,0
19.03.2019 11:00:00 4,9 -0,2 6,2 7,4 4,4 6,1 16 8 29 16 WNW 1025,1 35 24 0,0
19.03.2019 10:00:00 4,4 0,7 6,5 5,4 4,1 6,1 18 10 30 16 WNW 1024,9 30 2 0,0
19.03.2019 09:00:00 3,7 0,6 4,7 4,4 3,8 6,1 18 10 30 16 W 1024,0 25 5 0,0
19.03.2019 08:00:00 3,1 0,5 3,4 3,2 3,8 6,1 21 11 34 19 W 1023,3 20 34 0,0
19.03.2019 07:00:00 2,4 0,2 1,9 1,7 3,8 6,1 21 11 31 17 W 1022,6 25 7 0,0
19.03.2019 06:00:00 2,5 0,2 2,0 1,8 3,9 6,1 19 10 29 16 W 1022,1 35 0 0,0
19.03.2019 05:00:00 2,4 -0,1 1,9 1,7 4,0 6,1 18 10 27 14 WSW 1021,5 45 0 0,0
19.03.2019 04:00:00 1,9 0,0 1,5 1,3 4,1 6,1 13 7 22 12 SW 1021,0 45 0 0,0
19.03.2019 03:00:00 2,1 -0,2 0,8 1,1 4,4 6,1 13 7 28 15 WSW 1020,2 45 0 0,0
19.03.2019 02:00:00 2,6 0,0 1,3 1,5 4,6 6,1 16 9 32 18 W 1019,9 45 0 0,0
19.03.2019 01:00:00 3,0 0,4 2,2 1,9 4,8 6,1 19 10 35 19 W 1019,4 50 0 0,0
19.03.2019 00:00:00 2,9 0,1 1,5 2,0 5,1 6,1 21 11 38 21 W 1018,8 50 0 0,0
18.03.2019 23:00:00 3,8 0,2 2,5 2,5 5,3 6,1 22 12 41 22 W 1018,2 50 0 0,0
18.03.2019 22:00:00 4,1 0,3 3,2 2,8 5,5 6,1 22 12 35 19 W 1017,5 50 0 0,0
18.03.2019 21:00:00 4,6 0,1 3,3 3,1 5,8 6,1 22 12 42 23 WSW 1016,5 50 0 0,0
18.03.2019 20:00:00 5,3 0,1 3,8 3,7 6,1 6,1 22 12 41 22 W 1015,9 50 0 0,0
18.03.2019 19:00:00 5,0 0,9 3,5 4,2 6,4 6,1 23 13 40 21 W 1015,2 50 1 0,0
18.03.2019 18:00:00 4,5 2,2 3,5 5,4 6,5 6,1 21 11 60 33 W 1014,2 50 14 0,2
18.03.2019 17:00:00 7,9 -0,5 7,7 7,1 6,5 6,1 30 16 50 27 WSW 1013,0 40 31 0,0

tt = temperature
td = dewpoint
tt 5cm = temperature 5cm
tt -5cm = temperature -5cm
tt -20cm = temperature -20cm
tt -100cm = temperature -100cm
ff = wind speed
fx = gusts
dd = wind direction
ppp = reduced air pressure
vv = visibility
sd = sunshine duration
rr = precipitation

Next stations